Humidity-temperature Sensor

Selected Measurement Type: Relative Humidity

 
Relative Humidity [%]     6 entries per hour
Showing data from 3/21/2023 (00:00:00 Z) to 3/14/2023 (00:01:00 Z)
Previous Next [ Day | 3-Days | 7-Days ]
First Last
Prev [ Day | 3-Days | 7-Days ] Next
First Last

Start Time:     :
End Time:     :     
Time (in GMT) :00 :50 :40 :30 :20 :10
Previous Next [ Day | 3-Days | 7-Days ]
First Last
Prev [ Day | 3-Days | 7-Days ] Next
First Last


123 => good data
MM => data is determined as missing
-- => data not received/configured
Back to Top Back to Top
3/21/2023 00:00 to 23:10 76.13 77.36 75.05 77.20 74.71 75.94
3/20/2023 23:00 to 22:10 73.44 75.65 76.92 76.07 77.24 74.52
3/20/2023 22:00 to 21:10 73.48 74.61 75.36 73.42 74.29 75.19
3/20/2023 21:00 to 20:10 74.11 73.98 73.69 76.26 76.84 77.11
3/20/2023 20:00 to 19:10 75.94 76.21 75.55 74.34 74.61 75.63
3/20/2023 19:00 to 18:10 75.57 78.07 76.61 77.78 80.20 78.70
3/20/2023 18:00 to 17:10 80.70 81.41 77.17 78.57 80.14 78.91
3/20/2023 17:00 to 16:10 80.18 77.26 74.63 73.00 78.32 76.01
3/20/2023 16:00 to 15:10 78.53 79.35 78.20 78.87 80.24 78.16
3/20/2023 15:00 to 14:10 81.77 81.93 79.78 79.24 77.30 75.53
3/20/2023 14:00 to 13:10 78.62 79.89 77.63 75.27 78.05 80.83
3/20/2023 13:00 to 12:10 82.44 81.29 81.27 82.77 82.31 81.45
3/20/2023 12:00 to 11:10 82.27 81.93 82.56 81.16 82.94 82.06
3/20/2023 11:00 to 10:10 80.08 82.37 82.02 80.49 87.11 87.05
3/20/2023 10:00 to 9:10 86.17 86.19 84.04 82.81 82.73 84.17
3/20/2023 09:00 to 8:10 83.23 83.25 83.19 82.29 81.16 83.08
3/20/2023 08:00 to 7:10 83.71 82.39 83.83 84.90 84.86 83.00
3/20/2023 07:00 to 6:10 84.11 83.60 85.07 82.66 83.75 83.23
3/20/2023 06:00 to 5:10 84.79 85.52 86.65 86.13 85.73 85.09
3/20/2023 05:00 to 4:10 83.08 83.77 83.02 82.66 82.39 82.14
3/20/2023 04:00 to 3:10 80.95 81.50 80.64 81.87 81.89 82.62
3/20/2023 03:00 to 2:10 80.70 80.81 79.64 81.10 83.12 81.04
3/20/2023 02:00 to 1:10 81.22 82.87 81.37 80.72 79.62 78.39
3/20/2023 01:00 to 0:10 81.12 79.39 81.20 81.83 81.77 80.12
3/20/2023 00:00 to 23:10 80.70 80.14 80.16 80.31 81.04 82.31
3/19/2023 23:00 to 22:10 82.85 81.20 81.68 81.29 80.91 80.70
3/19/2023 22:00 to 21:10 80.45 80.54 79.80 79.80 79.64 79.05
3/19/2023 21:00 to 20:10 80.58 79.30 78.91 80.08 79.47 81.48
3/19/2023 20:00 to 19:10 80.31 78.11 77.61 79.43 81.31 80.62
3/19/2023 19:00 to 18:10 79.85 80.16 81.22 80.89 81.08 78.26
3/19/2023 18:00 to 17:10 79.95 81.27 80.70 82.89 81.41 80.56
3/19/2023 17:00 to 16:10 80.74 79.18 82.06 83.88 80.54 87.28
3/19/2023 16:00 to 15:10 87.32 87.72 87.03 86.99 86.03 83.77
3/19/2023 15:00 to 14:10 83.40 83.12 86.55 87.80 88.26 84.73
3/19/2023 14:00 to 13:10 86.03 86.84 84.17 84.65 87.49 88.53
3/19/2023 13:00 to 12:10 88.26 88.43 87.11 88.74 89.85 89.91
3/19/2023 12:00 to 11:10 90.20 89.51 88.53 87.63 86.07 83.25
3/19/2023 11:00 to 10:10 83.92 84.86 85.23 86.46 87.57 89.95
3/19/2023 10:00 to 9:10 89.35 87.11 89.07 88.11 87.38 86.51
3/19/2023 09:00 to 8:10 84.34 85.36 85.71 85.65 88.05 87.76
3/19/2023 08:00 to 7:10 87.15 85.71 85.34 85.36 85.34 84.71
3/19/2023 07:00 to 6:10 84.59 81.73 81.29 85.04 88.30 86.92
3/19/2023 06:00 to 5:10 87.86 87.99 89.26 88.99 90.31 87.93
3/19/2023 05:00 to 4:10 84.84 85.65 87.03 86.51 89.49 89.39
3/19/2023 04:00 to 3:10 87.80 86.51 83.37 82.69 81.75 81.06
3/19/2023 03:00 to 2:10 78.13 79.85 81.77 84.48 84.06 85.48
3/19/2023 02:00 to 1:10 84.29 83.79 85.11 83.54 83.44 82.27
3/19/2023 01:00 to 0:10 82.52 82.73 83.25 84.02 86.19 85.82
3/19/2023 00:00 to 23:10 85.65 85.71 84.75 84.06 83.25 83.10
3/18/2023 23:00 to 22:10 86.03 86.80 85.63 84.92 84.84 84.79
3/18/2023 22:00 to 21:10 83.37 83.63 83.81 83.44 83.04 82.69
3/18/2023 21:00 to 20:10 82.75 82.39 83.04 84.59 82.66 82.69
3/18/2023 20:00 to 19:10 82.85 82.81 84.29 85.92 85.42 84.56
3/18/2023 19:00 to 18:10 84.92 83.33 82.66 87.09 84.75 84.67
3/18/2023 18:00 to 17:10 84.46 84.79 83.65 84.46 85.13 83.04
3/18/2023 17:00 to 16:10 82.12 83.23 83.73 83.29 82.27 83.77
3/18/2023 16:00 to 15:10 83.67 82.37 83.33 85.46 87.70 85.98
3/18/2023 15:00 to 14:10 85.73 85.46 84.40 83.60 83.77 84.00
3/18/2023 14:00 to 13:10 83.73 86.28 83.12 87.01 88.53 83.69
3/18/2023 13:00 to 12:10 85.13 85.00 84.11 84.56 85.15 83.85
3/18/2023 12:00 to 11:10 83.00 83.77 84.59 83.60 84.08 84.86
3/18/2023 11:00 to 10:10 83.81 83.73 81.27 83.98 83.08 80.47
3/18/2023 10:00 to 9:10 81.25 81.35 80.22 80.56 80.77 80.87
3/18/2023 09:00 to 8:10 81.77 80.81 81.93 78.99 80.93 79.74
3/18/2023 08:00 to 7:10 81.02 80.10 81.35 81.33 81.22 81.39
3/18/2023 07:00 to 6:10 80.64 79.78 80.62 80.62 79.60 81.02
3/18/2023 06:00 to 5:10 80.16 80.22 79.14 79.18 79.10 79.70
3/18/2023 05:00 to 4:10 77.45 77.47 78.64 78.68 79.39 78.64
3/18/2023 04:00 to 3:10 79.78 78.68 78.57 78.70 78.24 79.07
3/18/2023 03:00 to 2:10 79.37 79.20 78.34 78.62 79.18 79.60
3/18/2023 02:00 to 1:10 78.07 78.09 76.65 79.51 75.15 77.76
3/18/2023 01:00 to 0:10 76.24 80.01 79.51 79.41 78.43 78.16
3/18/2023 00:00 to 23:10 78.51 78.70 77.76 76.80 78.07 75.78
3/17/2023 23:00 to 22:10 76.72 74.79 76.09 76.13 76.36 75.98
3/17/2023 22:00 to 21:10 76.38 75.76 74.61 74.82 73.00 73.71
3/17/2023 21:00 to 20:10 73.71 73.21 71.91 75.40 75.76 74.73
3/17/2023 20:00 to 19:10 72.39 73.60 72.08 72.54 71.75 70.01
3/17/2023 19:00 to 18:10 70.37 69.45 69.30 69.55 69.72 73.00
3/17/2023 18:00 to 17:10 74.27 71.54 73.08 73.19 72.85 72.08
3/17/2023 17:00 to 16:10 71.75 66.51 69.85 69.51 70.37 70.26
3/17/2023 16:00 to 15:10 72.02 72.19 74.82 72.02 76.49 76.13
3/17/2023 15:00 to 14:10 76.44 77.97 76.90 73.92 72.06 74.63
3/17/2023 14:00 to 13:10 73.90 73.46 73.42 74.75 74.82 76.13
3/17/2023 13:00 to 12:10 76.19 74.79 76.21 76.30 77.28 73.44
3/17/2023 12:00 to 11:10 75.80 76.53 75.05 75.40 74.50 77.28
3/17/2023 11:00 to 10:10 74.84 71.73 74.21 77.26 77.63 77.80
3/17/2023 10:00 to 9:10 77.97 79.32 78.07 78.45 79.10 81.68
3/17/2023 09:00 to 8:10 80.62 79.12 79.45 81.45 80.45 77.30
3/17/2023 08:00 to 7:10 80.64 80.83 80.01 78.18 78.91 79.60
3/17/2023 07:00 to 6:10 80.47 78.78 81.02 80.08 79.05 82.69
3/17/2023 06:00 to 5:10 78.74 82.06 81.29 80.18 80.89 81.10
3/17/2023 05:00 to 4:10 81.31 80.81 81.50 81.68 82.60 82.31
3/17/2023 04:00 to 3:10 83.48 82.08 82.02 82.83 85.40 83.67
3/17/2023 03:00 to 2:10 84.15 85.63 84.69 83.46 83.12 82.33
3/17/2023 02:00 to 1:10 83.25 84.13 83.17 83.17 83.60 82.98
3/17/2023 01:00 to 0:10 82.71 84.54 82.85 83.94 84.36 84.54
3/17/2023 00:00 to 23:10 83.81 86.80 85.50 85.46 86.97 87.47
3/16/2023 23:00 to 22:10 84.63 83.46 84.63 83.44 82.85 82.92
3/16/2023 22:00 to 21:10 82.14 82.52 81.79 82.23 81.14 80.87
3/16/2023 21:00 to 20:10 81.02 81.37 84.36 84.98 86.01 85.92
3/16/2023 20:00 to 19:10 86.03 86.92 87.32 86.67 87.34 85.94
3/16/2023 19:00 to 18:10 85.21 84.56 84.86 84.42 89.45 88.70
3/16/2023 18:00 to 17:10 87.49 86.63 85.36 86.74 86.53 84.82
3/16/2023 17:00 to 16:10 83.98 84.34 83.79 84.65 88.36 91.87
3/16/2023 16:00 to 15:10 94.19 94.81 95.86 96.15 95.59 96.65
3/16/2023 15:00 to 14:10 96.36 95.52 93.19 91.91 92.48 92.46
3/16/2023 14:00 to 13:10 93.27 94.21 94.94 95.98 95.48 95.48
3/16/2023 13:00 to 12:10 91.56 86.63 86.51 85.75 85.32 84.92
3/16/2023 12:00 to 11:10 85.00 88.82 91.33 92.58 90.43 87.26
3/16/2023 11:00 to 10:10 90.05 87.68 88.20 87.84 86.80 86.76
3/16/2023 10:00 to 9:10 87.22 86.97 87.34 85.15 84.65 84.19
3/16/2023 09:00 to 8:10 83.81 83.69 84.13 83.06 83.23 82.08
3/16/2023 08:00 to 7:10 82.75 83.31 82.64 83.46 83.27 83.25
3/16/2023 07:00 to 6:10 81.70 81.54 82.66 81.54 81.14 80.99
3/16/2023 06:00 to 5:10 81.04 82.04 81.12 79.83 79.87 79.32
3/16/2023 05:00 to 4:10 79.12 79.22 79.53 78.30 79.43 79.62
3/16/2023 04:00 to 3:10 79.28 79.20 78.64 79.10 79.24 77.53
3/16/2023 03:00 to 2:10 79.28 79.80 78.93 79.68 79.93 79.62
3/16/2023 02:00 to 1:10 80.14 79.99 80.08 80.97 81.33 78.97
3/16/2023 01:00 to 0:10 81.54 80.10 79.99 77.59 77.59 77.34
3/16/2023 00:00 to 23:10 76.24 76.32 76.40 76.57 80.20 77.65
3/15/2023 23:00 to 22:10 78.55 78.20 77.70 76.59 77.15 75.92
3/15/2023 22:00 to 21:10 77.88 77.74 77.17 75.98 77.15 77.70
3/15/2023 21:00 to 20:10 77.43 77.63 76.88 78.24 78.39 77.95
3/15/2023 20:00 to 19:10 77.99 78.11 78.45 76.19 77.28 77.68
3/15/2023 19:00 to 18:10 79.10 78.93 79.95 78.68 77.88 78.03
3/15/2023 18:00 to 17:10 79.22 79.87 79.93 78.18 80.14 80.03
3/15/2023 17:00 to 16:10 80.89 79.45 79.62 78.97 80.81 79.80
3/15/2023 16:00 to 15:10 79.76 80.37 79.83 80.43 80.16 80.58
3/15/2023 15:00 to 14:10 80.35 81.83 81.22 79.87 80.74 81.64
3/15/2023 14:00 to 13:10 79.55 80.31 80.08 81.31 79.64 79.80
3/15/2023 13:00 to 12:10 77.70 77.97 78.45 78.97 76.99 79.10
3/15/2023 12:00 to 11:10 80.58 80.14 80.31 79.99 79.39 80.41
3/15/2023 11:00 to 10:10 78.99 79.64 79.39 80.93 80.93 81.10
3/15/2023 10:00 to 9:10 79.85 79.93 79.60 79.26 81.37 80.83
3/15/2023 09:00 to 8:10 78.99 79.49 82.29 82.18 80.70 80.64
3/15/2023 08:00 to 7:10 81.81 80.33 81.20 81.31 81.41 79.28
3/15/2023 07:00 to 6:10 78.09 80.41 79.85 78.80 78.41 79.83
3/15/2023 06:00 to 5:10 82.33 83.21 83.23 82.14 79.49 81.41
3/15/2023 05:00 to 4:10 79.66 80.39 80.24 79.89 78.95 79.49
3/15/2023 04:00 to 3:10 79.14 78.72 80.18 80.39 79.55 79.91
3/15/2023 03:00 to 2:10 80.97 79.01 78.30 77.47 75.15 74.77
3/15/2023 02:00 to 1:10 74.40 74.69 75.00 78.39 75.94 75.94
3/15/2023 01:00 to 0:10 77.09 77.84 78.11 76.88 76.72 77.32
3/15/2023 00:00 to 23:10 75.36 74.19 73.94 74.48 73.33 74.17
3/14/2023 23:00 to 22:10 73.75 73.48 72.23 75.19 74.75 74.77
3/14/2023 22:00 to 21:10 76.99 76.28 76.01 76.49 77.11 75.00
3/14/2023 21:00 to 20:10 73.38 75.53 76.34 76.05 75.17 75.50
3/14/2023 20:00 to 19:10 75.11 75.02 73.54 75.48 74.04 73.06
3/14/2023 19:00 to 18:10 73.92 74.11 73.69 74.67 75.13 76.09
3/14/2023 18:00 to 17:10 74.02 77.38 77.22 78.26 75.57 78.68
3/14/2023 17:00 to 16:10 79.18 77.84 77.49 75.84 77.20 77.07
3/14/2023 16:00 to 15:10 75.34 74.82 76.55 76.15 76.42 76.03
3/14/2023 15:00 to 14:10 76.65 74.98 78.11 80.47 84.56 79.24
3/14/2023 14:00 to 13:10 78.91 78.93 79.01 80.56 77.95 75.84
3/14/2023 13:00 to 12:10 75.40 77.43 77.68 79.41 79.01 79.30
3/14/2023 12:00 to 11:10 79.74 80.47 81.20 80.54 78.89 77.95
3/14/2023 11:00 to 10:10 78.05 78.95 77.61 78.84 78.11 80.64
3/14/2023 10:00 to 9:10 80.41 76.67 78.68 79.93 80.33 79.39
3/14/2023 09:00 to 8:10 79.51 79.51 78.95 80.37 80.62 79.51
3/14/2023 08:00 to 7:10 80.41 80.77 80.39 81.27 81.18 82.33
3/14/2023 07:00 to 6:10 80.60 80.51 80.39 78.99 82.60 81.10
3/14/2023 06:00 to 5:10 82.79 81.70 82.31 82.92 82.64 82.31
3/14/2023 05:00 to 4:10 81.06 82.06 81.04 82.14 79.35 79.91
3/14/2023 04:00 to 3:10 79.43 79.68 81.12 80.93 81.87 80.43
3/14/2023 03:00 to 2:10 80.10 80.47 81.91 81.62 83.31 81.81
3/14/2023 02:00 to 1:10 81.02 82.16 80.24 79.28 80.85 80.06
3/14/2023 01:00 to 0:10 81.68 81.27 80.77 80.16 82.08 80.91